KK4OHF Weather Reports


time (UTC)temp
C
wind
direction
speed
KPH
gust
KPH
rain 1hr
cm
rain 24hr
cm
rain mn
cm
humidity
%
barometer
mb
20260906130005 23 239 1.6 4.8 0.00 0.00 0.00 89 1012.9
20260906125506 22 235 1.6 4.8 0.00 0.00 0.00 89 1012.9
20260906125005 22 269 1.6 3.2 0.00 0.00 0.00 89 1012.9
20260906124006 22 259 1.6 3.2 0.00 0.00 0.00 89 1012.9
20260906123504 22 257 1.6 3.2 0.00 0.00 0.00 89 1012.9
20260906123005 22 297 1.6 3.2 0.00 0.00 0.00 89 1012.9
20260906122506 22 297 0.0 1.6 0.00 0.00 0.00 90 1012.9
20260906122005 22 297 0.0 0.0 0.00 0.00 0.00 90 1012.9
20260906121505 22 297 0.0 1.6 0.00 0.00 0.00 90 1012.8
20260906121005 22 297 0.0 0.0 0.00 0.00 0.00 90 1012.5
20260906120505 22 297 0.0 3.2 0.00 0.00 0.00 90 1012.5
20260906120004 22 297 1.6 3.2 0.00 0.00 0.00 90 1012.5
20260906115506 22 297 0.0 1.6 0.00 0.00 0.00 90 1012.5
20260906115005 22 297 0.0 1.6 0.00 0.00 0.00 90 1012.5
20260906114005 22 297 0.0 1.6 0.00 0.00 0.00 90 1012.5
20260906113505 22 297 0.0 1.6 0.00 0.00 0.00 90 1012.5
20260906113006 22 297 0.0 1.6 0.00 0.00 0.00 90 1012.5
20260906112505 22 355 0.0 1.6 0.00 0.00 0.00 90 1012.5
20260906111505 22 355 0.0 1.6 0.00 0.00 0.00 90 1012.3
20260906111005 22 355 0.0 1.6 0.00 0.00 0.00 90 1012.3
20260906110504 22 355 0.0 0.0 0.00 0.00 0.00 90 1012.3
20260906110005 22 355 0.0 0.0 0.00 0.00 0.00 90 1012.5
20260906105505 22 355 0.0 0.0 0.00 0.00 0.00 90 1012.5
20260906105005 22 355 0.0 0.0 0.00 0.00 0.00 90 1012.5
20260906104005 22 355 0.0 0.0 0.00 0.00 0.00 90 1012.4
20260906103506 22 355 0.0 0.0 0.00 0.00 0.00 90 1012.4
20260906102505 22 355 0.0 0.0 0.00 0.00 0.00 90 1012.3
20260906101005 22 355 0.0 1.6 0.00 0.00 0.00 90 1012.3
20260906100506 22 355 0.0 0.0 0.00 0.00 0.00 90 1012.3
20260906100005 22 355 0.0 1.6 0.00 0.00 0.00 90 1012.4
20260906095505 22 355 0.0 0.0 0.00 0.00 0.00 90 1012.4
20260906095005 22 355 0.0 0.0 0.00 0.00 0.00 89 1012.3
20260906094505 22 355 0.0 0.0 0.00 0.00 0.00 89 1012.3
20260906094005 22 355 0.0 0.0 0.00 0.00 0.00 89 1012.3
20260906093505 22 355 0.0 0.0 0.00 0.00 0.00 89 1012.3
20260906093005 22 355 0.0 1.6 0.00 0.00 0.00 89 1012.1
20260906092505 22 355 0.0 0.0 0.00 0.00 0.00 89 1012.1
20260906092005 22 355 1.6 3.2 0.00 0.00 0.00 89 1012.0
20260906091505 22 355 1.6 3.2 0.00 0.00 0.00 89 1012.0
20260906091006 22 355 1.6 3.2 0.00 0.00 0.00 89 1012.0
20260906090504 22 297 1.6 3.2 0.00 0.00 0.00 89 1012.0
20260906090005 22 280 0.0 1.6 0.00 0.00 0.00 89 1011.7
20260906085504 22 280 0.0 0.0 0.00 0.00 0.00 89 1011.7
20260906085006 22 280 0.0 0.0 0.00 0.00 0.00 89 1011.7
20260906084506 22 280 0.0 0.0 0.00 0.00 0.00 89 1011.7
20260906084005 22 280 0.0 0.0 0.00 0.00 0.00 89 1011.7
20260906083506 22 280 0.0 0.0 0.00 0.00 0.00 89 1011.7
20260906083005 22 280 0.0 1.6 0.00 0.00 0.00 89 1012.0
20260906082505 22 280 0.0 0.0 0.00 0.00 0.00 89 1012.0
20260906082005 22 280 0.0 0.0 0.00 0.00 0.00 89 1012.0
20260906081505 22 280 0.0 1.6 0.00 0.00 0.00 89 1012.0
20260906081006 22 280 0.0 1.6 0.00 0.00 0.00 89 1011.9
20260906080505 22 280 0.0 0.0 0.00 0.00 0.00 89 1011.9
20260906080004 22 280 0.0 0.0 0.00 0.00 0.00 89 1012.0
20260906075505 22 280 0.0 0.0 0.00 0.00 0.00 89 1012.0
20260906075005 22 280 0.0 1.6 0.00 0.00 0.00 89 1012.0
20260906074504 22 280 0.0 0.0 0.00 0.00 0.00 89 1012.0
20260906074005 22 280 0.0 1.6 0.00 0.00 0.00 88 1012.0
20260906073505 22 280 0.0 0.0 0.00 0.00 0.00 88 1012.0
20260906072005 23 280 0.0 1.6 0.00 0.00 0.00 88 1011.9
20260906071005 23 280 0.0 0.0 0.00 0.00 0.00 88 1012.0
20260906070505 23 280 0.0 0.0 0.00 0.00 0.00 88 1012.0
20260906070005 23 280 0.0 0.0 0.00 0.00 0.00 87 1012.0
20260906065005 23 280 0.0 0.0 0.00 0.00 0.00 88 1012.0
20260906064505 23 280 0.0 0.0 0.00 0.00 0.00 88 1012.0
20260906064005 23 280 0.0 0.0 0.00 0.00 0.00 87 1012.1
20260906063505 23 280 0.0 0.0 0.00 0.00 0.00 87 1012.1
20260906062505 23 280 0.0 1.6 0.00 0.00 0.00 87 1012.1
20260906062005 23 280 1.6 3.2 0.00 0.00 0.00 87 1012.1
20260906061505 23 280 1.6 3.2 0.00 0.00 0.00 87 1012.1
20260906060505 23 280 0.0 1.6 0.00 0.00 0.00 87 1012.1
20260906060005 23 280 0.0 1.6 0.00 0.00 0.00 87 1012.2
20260906055005 23 271 1.6 3.2 0.00 0.00 0.00 86 1012.1
20260906054005 23 250 0.0 1.6 0.00 0.00 0.00 86 1012.5
20260906053005 23 250 0.0 1.6 0.00 0.00 0.00 86 1012.6
20260906052505 23 250 0.0 1.6 0.00 0.00 0.00 86 1012.6
20260906052005 24 250 0.0 1.6 0.00 0.00 0.00 86 1012.6
20260906051506 24 250 1.6 4.8 0.00 0.00 0.00 85 1012.6
20260906051005 24 283 1.6 4.8 0.00 0.00 0.00 85 1012.6
20260906050505 24 128 0.0 1.6 0.00 0.00 0.00 85 1012.6
20260906045504 24 128 0.0 3.2 0.00 0.00 0.00 84 1012.6
20260906045005 24 128 0.0 0.0 0.00 0.00 0.00 84 1012.7
20260906044005 24 128 0.0 1.6 0.00 0.00 0.00 84 1012.7
20260906043505 25 128 0.0 0.0 0.00 0.00 0.00 83 1012.7
20260906043005 25 128 0.0 3.2 0.00 0.00 0.00 83 1012.7
20260906042004 25 128 0.0 1.6 0.00 0.00 0.00 83 1012.7
20260906041505 25 128 0.0 0.0 0.00 0.00 0.00 82 1012.7
20260906041006 25 128 0.0 0.0 0.00 0.00 0.00 82 1012.8
20260906040506 25 128 0.0 0.0 0.00 0.00 0.00 81 1012.8
20260906040005 25 128 0.0 0.0 0.00 0.00 0.00 81 1013.0
20260906035505 25 128 0.0 0.0 0.00 0.00 0.00 81 1013.0
20260906034505 25 128 0.0 0.0 0.00 0.00 0.00 80 1013.0
20260906034005 25 128 0.0 0.0 0.00 0.00 0.00 80 1012.8
20260906033505 25 128 0.0 1.6 0.00 0.00 0.00 80 1012.8
20260906033005 25 128 0.0 0.0 0.00 0.00 0.00 79 1013.1
20260906032505 26 128 0.0 1.6 0.00 0.00 0.00 79 1013.1
20260906032006 26 128 0.0 0.0 0.00 0.00 0.00 78 1013.1
20260906031505 26 128 0.0 0.0 0.00 0.00 0.00 77 1013.1
20260906031005 26 128 0.0 1.6 0.00 0.00 0.00 77 1013.5
20260906030505 26 128 0.0 1.6 0.00 0.00 0.00 77 1013.5
20260906030006 26 128 0.0 0.0 0.00 0.00 0.00 77 1013.5
20260906025504 26 128 0.0 1.6 0.00 0.00 0.00 77 1013.5
20260906025005 26 128 0.0 0.0 0.00 0.00 0.00 76 1013.2
20260906024505 26 128 0.0 0.0 0.00 0.00 0.00 76 1013.2
20260906024006 26 128 1.6 3.2 0.00 0.00 0.00 76 1013.3
20260906023505 26 128 0.0 0.0 0.00 0.00 0.00 75 1013.3
20260906023005 26 128 0.0 3.2 0.00 0.00 0.00 75 1013.2
20260906022505 26 128 1.6 3.2 0.00 0.00 0.00 74 1013.2
20260906022005 26 128 0.0 1.6 0.00 0.00 0.00 74 1013.2
20260906021505 26 128 0.0 1.6 0.00 0.00 0.00 74 1013.3
20260906021006 26 128 0.0 1.6 0.00 0.00 0.00 74 1013.3
20260906020505 27 128 0.0 3.2 0.00 0.00 0.00 73 1013.3
20260906020005 27 91 0.0 3.2 0.00 0.00 0.00 73 1013.4
20260906015506 27 111 1.6 4.8 0.00 0.00 0.00 73 1013.4
20260906015004 27 121 0.0 3.2 0.00 0.00 0.00 73 1012.9
20260906014504 27 153 0.0 1.6 0.00 0.00 0.00 72 1012.9
20260906014006 27 153 0.0 1.6 0.00 0.00 0.00 73 1012.9
20260906013505 27 153 0.0 0.0 0.00 0.00 0.00 73 1012.9
20260906013005 27 153 0.0 1.6 0.00 0.00 0.00 72 1012.9
20260906012505 27 153 0.0 0.0 0.00 0.00 0.00 72 1012.9
20260906012005 27 153 0.0 0.0 0.00 0.00 0.00 72 1012.6
20260906011506 27 153 0.0 0.0 0.00 0.00 0.00 71 1012.6
20260906011005 27 153 0.0 1.6 0.00 0.00 0.00 71 1012.6
20260906010506 27 153 1.6 4.8 0.00 0.00 0.00 71 1012.6
20260906005504 28 197 1.6 3.2 0.00 0.00 0.00 69 1011.5
20260906005004 28 197 0.0 3.2 0.00 0.00 0.00 69 1011.5
20260906004505 28 197 0.0 1.6 0.00 0.00 0.00 68 1011.5
20260906004005 28 197 0.0 0.0 0.00 0.00 0.00 68 1011.5
20260906003505 28 197 0.0 3.2 0.00 0.00 0.00 68 1011.5
20260906002505 28 197 0.0 1.6 0.00 0.00 0.00 67 1011.3
20260906002005 28 197 0.0 1.6 0.00 0.00 0.00 66 1011.3
20260906001006 29 197 1.6 3.2 0.00 0.00 0.00 64 1011.6
20260906000504 29 197 0.0 3.2 0.00 0.00 0.00 64 1011.6
20260906000005 29 189 0.0 3.2 0.00 0.00 0.00 63 1011.1
20260905235504 29 119 0.0 3.2 0.00 0.00 0.00 62 1011.1
20260905235005 30 119 1.6 4.8 0.00 0.00 0.00 62 1011.1
20260905234505 30 25 4.8 9.7 0.00 0.00 0.00 61 1011.0
20260905234005 30 21 3.2 11.3 0.00 0.00 0.00 60 1011.0
20260905233506 31 15 3.2 4.8 0.00 0.00 0.00 59 1011.0
20260905233005 31 356 3.2 8.0 0.00 0.00 0.00 58 1010.9
20260905232505 31 3 4.8 11.3 0.00 0.00 0.00 57 1010.9
20260905232005 32 26 4.8 11.3 0.00 0.00 0.00 57 1010.9
20260905231006 33 12 4.8 8.0 0.00 0.00 0.00 60 1010.8
20260905230506 34 17 3.2 4.8 0.00 0.00 0.00 62 1010.8
20260905230005 35 119 0.0 3.2 0.00 0.00 0.00 62 1010.8
20260905225505 35 119 0.0 3.2 0.00 0.00 0.00 57 1010.8
20260905225006 35 119 0.0 0.0 0.00 0.00 0.00 56 1010.7
20260905224505 35 119 0.0 1.6 0.00 0.00 0.00 54 1010.5
20260905224005 35 119 0.0 3.2 0.00 0.00 0.00 52 1010.5
20260905223505 35 119 1.6 4.8 0.00 0.00 0.00 51 1010.5
20260905222505 35 252 0.0 1.6 0.00 0.00 0.00 49 1010.8
20260905222006 35 252 0.0 1.6 0.00 0.00 0.00 49 1010.8
20260905221506 35 252 0.0 1.6 0.00 0.00 0.00 50 1010.8
20260905220505 35 252 0.0 1.6 0.00 0.00 0.00 47 1010.8
20260905220005 35 252 1.6 1.6 0.00 0.00 0.00 46 1010.4
20260905215006 36 107 0.0 1.6 0.00 0.00 0.00 46 1010.4
20260905214505 36 107 0.0 3.2 0.00 0.00 0.00 46 1010.4
20260905214006 36 130 0.0 3.2 0.00 0.00 0.00 45 1010.4
20260905213006 36 219 1.6 3.2 0.00 0.00 0.00 45 1010.6
20260905212506 36 137 1.6 3.2 0.00 0.00 0.00 46 1010.6
20260905211505 36 284 1.6 9.7 0.00 0.00 0.00 45 1010.9
20260905211005 36 77 1.6 9.7 0.00 0.00 0.00 45 1010.9
20260905210505 36 313 1.6 3.2 0.00 0.00 0.00 45 1010.9
20260905210005 36 332 1.6 4.8 0.00 0.00 0.00 45 1011.1
20260905205506 36 96 1.6 4.8 0.00 0.00 0.00 46 1011.1
20260905204505 36 296 1.6 3.2 0.00 0.00 0.00 46 1011.1
20260905204005 36 94 3.2 9.7 0.00 0.00 0.00 45 1011.3
20260905203005 36 121 1.6 8.0 0.00 0.00 0.00 44 1011.5
20260905202506 36 153 1.6 8.0 0.00 0.00 0.00 43 1011.5
20260905202006 36 285 1.6 4.8 0.00 0.00 0.00 45 1011.5
20260905201505 36 153 1.6 4.8 0.00 0.00 0.00 44 1011.5
20260905200506 36 139 1.6 4.8 0.00 0.00 0.00 45 1011.5
20260905200005 36 332 3.2 8.0 0.00 0.00 0.00 45 1011.8
20260905195505 36 109 3.2 4.8 0.00 0.00 0.00 46 1011.8
20260905195006 36 300 1.6 3.2 0.00 0.00 0.00 46 1011.9
20260905194504 36 22 1.6 3.2 0.00 0.00 0.00 47 1011.9
20260905194005 36 16 0.0 4.8 0.00 0.00 0.00 49 1011.9
20260905193505 35 4 3.2 4.8 0.00 0.00 0.00 48 1011.9
20260905193006 36 7 3.2 4.8 0.00 0.00 0.00 47 1012.1
20260905192006 36 38 1.6 3.2 0.00 0.00 0.00 48 1012.1
20260905191506 35 342 1.6 4.8 0.00 0.00 0.00 47 1012.1
20260905191005 35 345 1.6 4.8 0.00 0.00 0.00 47 1012.3
20260905190504 36 98 1.6 4.8 0.00 0.00 0.00 46 1012.3
20260905190005 36 325 3.2 8.0 0.00 0.00 0.00 47 1012.6
20260905185505 36 20 1.6 4.8 0.00 0.00 0.00 46 1012.6
20260905185005 36 28 1.6 4.8 0.00 0.00 0.00 49 1012.6
20260905184505 36 123 1.6 4.8 0.00 0.00 0.00 48 1012.6
20260905183506 35 15 3.2 8.0 0.00 0.00 0.00 52 1012.8
20260905183005 35 23 1.6 3.2 0.00 0.00 0.00 51 1013.1
20260905182505 35 289 1.6 3.2 0.00 0.00 0.00 49 1013.1
20260905182005 35 5 3.2 8.0 0.00 0.00 0.00 49 1013.1
20260905181506 35 17 3.2 8.0 0.00 0.00 0.00 50 1013.0
20260905180506 35 18 3.2 4.8 0.00 0.00 0.00 51 1013.1
20260905180005 35 4 1.6 4.8 0.00 0.00 0.00 51 1013.2
20260905175505 35 15 1.6 8.0 0.00 0.00 0.00 52 1013.2
20260905175005 35 14 1.6 8.0 0.00 0.00 0.00 53 1013.2
20260905174505 35 295 1.6 3.2 0.00 0.00 0.00 53 1013.3
20260905173505 34 345 1.6 8.0 0.00 0.00 0.00 53 1013.6
20260905173006 35 356 1.6 4.8 0.00 0.00 0.00 51 1013.6
20260905172505 35 41 1.6 8.0 0.00 0.00 0.00 52 1013.6
20260905171506 35 124 1.6 4.8 0.00 0.00 0.00 54 1013.6
20260905171005 34 74 1.6 4.8 0.00 0.00 0.00 55 1013.7
20260905170505 34 5 3.2 4.8 0.00 0.00 0.00 54 1013.7
20260905170004 34 348 3.2 4.8 0.00 0.00 0.00 52 1013.7
20260905165505 34 7 3.2 4.8 0.00 0.00 0.00 52 1013.7
20260905165005 34 11 1.6 3.2 0.00 0.00 0.00 53 1014.2
20260905164504 34 30 1.6 4.8 0.00 0.00 0.00 53 1014.2
20260905164004 33 14 3.2 8.0 0.00 0.00 0.00 54 1014.2
20260905163505 33 5 3.2 8.0 0.00 0.00 0.00 54 1014.2
20260905163006 33 51 3.2 8.0 0.00 0.00 0.00 54 1014.2
20260905162505 34 11 1.6 4.8 0.00 0.00 0.00 54 1014.2
20260905161504 33 7 3.2 11.3 0.00 0.00 0.00 55 1014.2
20260905161006 33 344 1.6 8.0 0.00 0.00 0.00 56 1014.3
20260905160505 33 19 1.6 8.0 0.00 0.00 0.00 59 1014.3
20260905160005 33 342 4.8 8.0 0.00 0.00 0.00 57 1014.5
20260905155506 33 350 1.6 4.8 0.00 0.00 0.00 57 1014.5
20260905155005 33 356 3.2 4.8 0.00 0.00 0.00 58 1014.5
20260905154505 33 5 1.6 4.8 0.00 0.00 0.00 57 1014.5
20260905154005 33 280 3.2 4.8 0.00 0.00 0.00 59 1014.6
20260905153005 32 348 3.2 9.7 0.00 0.00 0.00 60 1014.5
20260905152505 32 10 1.6 4.8 0.00 0.00 0.00 62 1014.5
20260905152006 32 344 3.2 4.8 0.00 0.00 0.00 63 1014.5
20260905151505 32 356 3.2 4.8 0.00 0.00 0.00 61 1014.5
20260905150505 32 353 1.6 4.8 0.00 0.00 0.00 62 1014.5
20260905150005 32 28 3.2 4.8 0.00 0.00 0.00 62 1014.7
20260905145005 31 289 1.6 8.0 0.00 0.00 0.00 62 1014.7
20260905144506 32 279 3.2 8.0 0.00 0.00 0.00 61 1014.7
20260905144006 32 250 1.6 4.8 0.00 0.00 0.00 64 1014.7
20260905143505 31 254 1.6 4.8 0.00 0.00 0.00 67 1014.7
20260905142005 30 227 1.6 4.8 0.00 0.00 0.00 68 1014.7
20260905141505 30 237 1.6 3.2 0.00 0.00 0.00 69 1014.7
20260905141005 30 259 0.0 3.2 0.00 0.00 0.00 71 1014.7
20260905140505 30 253 0.0 3.2 0.00 0.00 0.00 71 1014.7
20260905135505 28 237 1.6 4.8 0.00 0.00 0.00 73 1014.7
20260905135005 28 252 3.2 8.0 0.00 0.00 0.00 76 1014.7
20260905134505 27 260 3.2 4.8 0.00 0.00 0.00 81 1014.7
20260905134005 26 293 0.0 4.8 0.00 0.00 0.00 88 1014.9
20260905133505 25 284 1.6 4.8 0.00 0.00 0.00 89 1014.9
20260905133005 24 248 1.6 3.2 0.00 0.00 0.00 89 1014.9
20260905132505 23 289 0.0 4.8 0.00 0.00 0.00 89 1014.9
20260905132005 23 250 1.6 3.2 0.00 0.00 0.00 89 1015.0
20260905131504 23 250 1.6 3.2 0.00 0.00 0.00 89 1015.1
20260905131005 23 250 1.6 4.8 0.00 0.00 0.00 89 1015.2
20260905130505 23 245 0.0 1.6 0.00 0.00 0.00 89 1015.2